When you browse on this site, cookies collect data to enhance your experience and personalize the content and advertising you see.
Visit our Privacy Policy to learn more. By continuing to use the site, you agree to this use of cookies and data.
  • In United Kingdom
  • List of Countries
  • For 7 days
  • Water Temperature
  • Satellite Maps
  • Weather Map
  • Weather Widgets
  • user-avatar
    Login

    Hourly Weather Santiago

    Today, 22 February, Friday

    Time Temperature Precipitation Wind Pressure Humidity
    00:00 +28°C° 0 mm 1 mps 748 mmHg 72%
    01:00 +27°C° 0 mm 1 mps 749 mmHg 75%
    02:00 +27°C° 0 mm 1 mps 748 mmHg 77%
    03:00 +26°C° 0 mm 1 mps 748 mmHg 79%
    04:00 +26°C° 0 mm 1 mps 748 mmHg 81%
    05:00 +26°C° 0 mm 1 mps 748 mmHg 82%
    06:00 +26°C° 0 mm 1 mps 749 mmHg 83%
    07:00 +25°C° 0 mm 1 mps 749 mmHg 84%
    08:00 +28°C° 0 mm 1 mps 749 mmHg 74%
    09:00 +30°C° 0 mm 1 mps 750 mmHg 64%
    10:00 +34°C° 0 mm 2 mps 750 mmHg 54%
    11:00 +35°C° 0 mm 2 mps 750 mmHg 48%
    12:00 +37°C° 0 mm 2 mps 750 mmHg 43%
    13:00 +38°C° 0 mm 3 mps 750 mmHg 37%
    14:00 +38°C° 0 mm 3 mps 749 mmHg 40%
    15:00 +37°C° 0 mm 3 mps 749 mmHg 42%
    16:00 +36°C° 0 mm 3 mps 748 mmHg 44%
    17:00 +35°C° 0.1 mm 2 mps 748 mmHg 51%
    18:00 +32°C° 0.1 mm 2 mps 748 mmHg 58%
    19:00 +30°C° 0.1 mm 2 mps 748 mmHg 64%
    20:00 +29°C° 0 mm 2 mps 749 mmHg 68%
    21:00 +29°C° 0 mm 1 mps 750 mmHg 71%
    22:00 +28°C° 0 mm 1 mps 750 mmHg 74%
    23:00 +27°C° 0 mm 1 mps 750 mmHg 75%

    Tomorrow, 23 February, Saturday

    Time Temperature Precipitation Wind Pressure Humidity
    00:00 +27°C° 0 mm 1 mps 750 mmHg 77%
    01:00 +27°C° 0 mm 1 mps 750 mmHg 78%
    02:00 +26°C° 0 mm 1 mps 750 mmHg 79%
    03:00 +26°C° 0 mm 1 mps 749 mmHg 80%
    04:00 +26°C° 0 mm 1 mps 749 mmHg 81%
    05:00 +26°C° 0 mm 1 mps 749 mmHg 81%
    06:00 +25°C° 0 mm 1 mps 749 mmHg 82%
    07:00 +25°C° 0 mm 1 mps 749 mmHg 82%
    08:00 +28°C° 0 mm 1 mps 750 mmHg 72%
    09:00 +30°C° 0 mm 1 mps 751 mmHg 62%
    10:00 +34°C° 0 mm 2 mps 751 mmHg 51%
    11:00 +35°C° 0 mm 2 mps 751 mmHg 46%
    12:00 +37°C° 0 mm 3 mps 750 mmHg 41%
    13:00 +40°C° 0 mm 4 mps 750 mmHg 35%
    14:00 +38°C° 0 mm 3 mps 749 mmHg 37%
    15:00 +38°C° 0 mm 3 mps 748 mmHg 38%
    16:00 +37°C° 0 mm 3 mps 747 mmHg 40%
    17:00 +35°C° 0 mm 3 mps 748 mmHg 47%
    18:00 +32°C° 0 mm 2 mps 748 mmHg 54%
    19:00 +30°C° 0 mm 2 mps 748 mmHg 61%
    20:00 +29°C° 0 mm 2 mps 749 mmHg 65%
    21:00 +28°C° 0 mm 1 mps 750 mmHg 69%
    22:00 +28°C° 0 mm 1 mps 750 mmHg 72%
    23:00 +27°C° 0 mm 1 mps 750 mmHg 74%

    Day after tomorrow, 24 February, Sunday

    Time Temperature Precipitation Wind Pressure Humidity
    00:00 +27°C° 0 mm 1 mps 750 mmHg 76%
    01:00 +24°C° 0 mm 0 mps 750 mmHg 78%
    02:00 +24°C° 0 mm 0 mps 749 mmHg 79%
    03:00 +24°C° 0 mm 0 mps 749 mmHg 81%
    04:00 +23°C° 0 mm 0 mps 749 mmHg 82%
    05:00 +23°C° 0 mm 0 mps 749 mmHg 82%
    06:00 +25°C° 0 mm 1 mps 749 mmHg 83%
    07:00 +25°C° 0 mm 1 mps 750 mmHg 83%
    08:00 +28°C° 0 mm 1 mps 750 mmHg 73%
    09:00 +30°C° 0 mm 1 mps 751 mmHg 62%
    10:00 +32°C° 0 mm 2 mps 751 mmHg 52%
    11:00 +35°C° 0 mm 2 mps 751 mmHg 46%
    12:00 +37°C° 0 mm 2 mps 750 mmHg 41%
    13:00 +38°C° 0 mm 3 mps 749 mmHg 35%
    14:00 +37°C° 0 mm 3 mps 749 mmHg 38%
    15:00 +36°C° 0 mm 3 mps 748 mmHg 41%
    16:00 +35°C° 0 mm 3 mps 747 mmHg 45%
    17:00 +34°C° 0.1 mm 2 mps 747 mmHg 52%
    18:00 +31°C° 0.1 mm 2 mps 748 mmHg 60%
    19:00 +29°C° 0.1 mm 2 mps 748 mmHg 68%
    20:00 +29°C° 0 mm 1 mps 748 mmHg 69%
    21:00 +28°C° 0 mm 1 mps 749 mmHg 70%
    22:00 +27°C° 0 mm 1 mps 750 mmHg 72%
    23:00 +27°C° 0 mm 1 mps 750 mmHg 73%

    25 February, Monday

    Time Temperature Precipitation Wind Pressure Humidity
    00:00 +26°C° 0 mm 1 mps 749 mmHg 75%
    01:00 +26°C° 0 mm 1 mps 749 mmHg 77%
    02:00 +26°C° 0 mm 1 mps 749 mmHg 78%
    03:00 +25°C° 0 mm 1 mps 748 mmHg 79%
    04:00 +25°C° 0 mm 1 mps 748 mmHg 80%
    05:00 +25°C° 0 mm 1 mps 748 mmHg 81%
    06:00 +25°C° 0 mm 1 mps 749 mmHg 81%
    07:00 +25°C° 0 mm 1 mps 749 mmHg 82%
    08:00 +27°C° 0 mm 1 mps 750 mmHg 72%
    09:00 +29°C° 0 mm 2 mps 750 mmHg 63%
    10:00 +32°C° 0 mm 2 mps 751 mmHg 54%
    11:00 +34°C° 0 mm 3 mps 750 mmHg 49%
    12:00 +36°C° 0 mm 3 mps 750 mmHg 44%
    13:00 +37°C° 0 mm 4 mps 749 mmHg 39%
    14:00 +37°C° 0 mm 4 mps 748 mmHg 39%
    15:00 +37°C° 0 mm 4 mps 747 mmHg 40%
    16:00 +37°C° 0 mm 4 mps 747 mmHg 40%
    17:00 +35°C° 0 mm 3 mps 747 mmHg 46%
    18:00 +33°C° 0 mm 3 mps 747 mmHg 52%
    19:00 +30°C° 0 mm 2 mps 748 mmHg 59%
    20:00 +29°C° 0 mm 2 mps 748 mmHg 63%
    21:00 +28°C° 0 mm 2 mps 749 mmHg 67%
    22:00 +27°C° 0 mm 1 mps 750 mmHg 71%
    23:00 +27°C° 0 mm 1 mps 749 mmHg 73%

    26 February, Tuesday

    Time Temperature Precipitation Wind Pressure Humidity
    00:00 +26°C° 0 mm 1 mps 749 mmHg 75%
    01:00 +26°C° 0 mm 1 mps 749 mmHg 78%
    02:00 +26°C° 0 mm 1 mps 749 mmHg 79%
    03:00 +25°C° 0 mm 1 mps 749 mmHg 80%
    04:00 +25°C° 0 mm 1 mps 748 mmHg 81%
    05:00 +25°C° 0 mm 2 mps 749 mmHg 81%
    06:00 +25°C° 0 mm 2 mps 749 mmHg 80%
    07:00 +25°C° 0 mm 2 mps 750 mmHg 80%
    08:00 +28°C° 0 mm 3 mps 750 mmHg 70%
    09:00 +30°C° 0 mm 5 mps 751 mmHg 60%
    10:00 +33°C° 0 mm 6 mps 751 mmHg 50%
    11:00 +34°C° 0 mm 6 mps 751 mmHg 47%
    12:00 +35°C° 0 mm 7 mps 750 mmHg 44%
    13:00 +36°C° 0 mm 7 mps 749 mmHg 42%
    14:00 +36°C° 0 mm 7 mps 749 mmHg 42%
    15:00 +36°C° 0 mm 7 mps 748 mmHg 42%
    16:00 +35°C° 0 mm 7 mps 748 mmHg 42%
    17:00 +33°C° 0 mm 6 mps 748 mmHg 48%
    18:00 +30°C° 0 mm 5 mps 748 mmHg 54%
    19:00 +29°C° 0 mm 3 mps 749 mmHg 59%
    20:00 +28°C° 0 mm 3 mps 749 mmHg 63%
    21:00 +27°C° 0 mm 2 mps 750 mmHg 66%
    22:00 +26°C° 0 mm 2 mps 750 mmHg 70%
    23:00 +26°C° 0 mm 2 mps 750 mmHg 72%

    27 February, Wednesday

    Time Temperature Precipitation Wind Pressure Humidity
    00:00 +26°C° 0 mm 2 mps 749 mmHg 74%
    01:00 +25°C° 0 mm 2 mps 749 mmHg 75%
    02:00 +25°C° 0 mm 2 mps 749 mmHg 77%
    03:00 +25°C° 0 mm 2 mps 749 mmHg 78%
    04:00 +25°C° 0 mm 2 mps 748 mmHg 79%
    05:00 +25°C° 0 mm 2 mps 749 mmHg 80%
    06:00 +25°C° 0 mm 2 mps 749 mmHg 80%
    07:00 +24°C° 0 mm 1 mps 749 mmHg 81%
    08:00 +27°C° 0 mm 2 mps 750 mmHg 70%
    09:00 +30°C° 0 mm 3 mps 750 mmHg 60%
    10:00 +33°C° 0 mm 4 mps 750 mmHg 50%
    11:00 +35°C° 0 mm 4 mps 750 mmHg 45%
    12:00 +36°C° 0 mm 4 mps 749 mmHg 41%
    13:00 +39°C° 0 mm 5 mps 749 mmHg 36%
    14:00 +37°C° 0 mm 5 mps 748 mmHg 37%
    15:00 +37°C° 0 mm 5 mps 747 mmHg 37%
    16:00 +37°C° 0 mm 5 mps 747 mmHg 38%
    17:00 +35°C° 0 mm 4 mps 747 mmHg 43%
    18:00 +33°C° 0 mm 4 mps 747 mmHg 49%
    19:00 +30°C° 0 mm 3 mps 748 mmHg 54%
    20:00 +29°C° 0 mm 2 mps 748 mmHg 58%
    21:00 +28°C° 0 mm 2 mps 749 mmHg 62%
    22:00 +27°C° 0 mm 1 mps 749 mmHg 66%
    23:00 +27°C° 0 mm 1 mps 749 mmHg 68%
    Show more